Wind_Speed
14 16 19 22 23 25 26 26 26 29 30 29 27 26 27 29 29 31 33 35 34 32 30 28 27 26 25 24 23 23 24 24 23 21 21 21 22 23 24 25 25 27 29 31
14 15 18 21 23 24 24 24 25 27 28 28 27 25 26 28 29 31 33 35 35 34 32 30 30 28 27 27 25 25 25 26 25 25 25 26 26 26 27 28 28 30 32 34
14 16 17 19 22 23 23 24 25 27 28 27 25 24 26 28 29 30 32 34 34 34 33 32 31 31 29 29 27 26 27 27 27 28 29 28 28 28 29 30 31 33 34 35
14 16 17 18 21 22 22 23 25 26 26 25 25 21 26 27 29 30 31 32 32 33 33 34 33 33 32 31 29 29 29 29 29 31 31 30 30 31 32 33 33 34 35 35
13 15 16 17 18 21 22 24 24 25 26 26 26 23 24 26 28 29 30 31 31 32 34 35 35 34 34 34 33 31 32 32 32 33 33 33 33 33 34 35 35 35 35 36
12 14 15 16 17 20 22 23 23 24 24 24 26 24 24 25 25 26 28 29 30 31 33 35 36 36 35 34 33 34 35 33 33 34 35 36 37 36 36 35 36 36 36 36
8 10 13 15 16 18 21 21 19 20 21 21 26 25 26 25 23 23 24 26 27 28 30 32 34 35 36 35 34 34 34 34 34 35 36 38 38 37 36 37 37 37 38 39
5 6 11 13 15 17 19 21 17 14 17 20 25 26 27 25 23 23 23 24 25 26 26 28 31 33 34 35 36 35 35 35 35 36 37 38 38 39 40 39 39 38 39 40
6 6 10 11 14 17 19 19 20 19 17 17 23 26 26 25 24 23 24 24 25 25 26 27 29 31 33 35 36 37 37 38 39 40 41 41 41 43 43 42 42 42 42 43
6 7 8 10 12 15 18 19 21 18 14 16 21 25 26 26 25 25 25 26 26 27 28 29 31 32 34 36 37 38 39 41 42 43 43 42 43 44 44 45 45 44 46 46
4 7 8 10 12 13 15 17 18 17 16 14 16 22 25 26 25 25 27 28 28 29 30 31 32 34 36 37 38 39 41 42 43 44 44 45 46 46 47 46 47 48 48 49
3 6 8 9 11 13 15 16 17 15 17 18 15 20 22 24 25 27 28 29 30 32 32 34 34 35 37 38 38 40 41 42 44 45 46 47 47 47 48 48 49 49 49 49
3 5 5 6 9 11 13 15 16 17 17 17 17 22 23 24 26 27 29 31 32 34 35 36 37 39 40 41 41 43 44 45 46 46 46 46 46 47 48 49 50 49 50 50
2 5 7 8 9 11 12 14 15 16 15 17 20 24 24 25 27 28 30 31 32 34 36 37 38 39 40 41 42 43 44 45 45 45 44 45 45 46 46 47 48 49 49 50
2 3 5 6 8 10 12 14 15 17 19 21 23 24 25 26 27 28 29 31 32 33 34 35 36 38 39 40 40 41 41 42 42 42 42 42 42 42 43 44 45 45 46 48
4 2 2 4 7 9 11 14 16 18 20 22 24 25 26 26 27 28 29 30 31 32 33 33 34 35 35 36 36 37 37 38 38 39 40 41 41 42 42 42 42 42 44 46
6 4 2 2 5 7 10 12 15 17 19 21 23 24 25 25 26 27 28 28 28 29 29 30 30 31 32 32 33 33 34 34 35 36 37 38 38 39 40 39 40 42 43 45
8 6 4 3 4 7 8 11 13 16 18 20 21 22 23 23 24 25 26 26 26 26 26 27 28 28 29 30 30 31 32 32 33 34 35 36 36 37 38 39 40 42 43 45
9 8 6 6 6 7 9 11 13 15 17 18 19 20 21 22 23 24 24 24 23 23 24 25 26 26 26 27 27 28 29 30 31 32 33 34 35 37 38 39 39 41 42 44
9 9 8 7 8 9 10 11 13 14 15 15 16 17 17 18 19 19 19 20 21 20 20 21 22 22 22 23 25 26 27 27 28 29 29 30 31 33 34 35 36 38 40 42
10 10 9 9 9 9 11 11 12 12 13 13 14 14 14 14 14 15 15 16 16 16 17 18 19 19 20 21 22 23 23 24 25 25 26 27 28 30 31 33 34 36 38 39
11 11 11 11 11 11 12 11 11 12 12 11 11 10 11 11 11 12 12 12 13 14 15 15 16 17 18 19 19 20 21 22 22 23 24 24 26 27 28 29 31 32 34 35
12 12 12 12 12 12 12 11 11 10 10 9 8 8 7 8 9 9 10 10 10 11 12 13 14 16 17 17 18 18 19 19 20 20 20 22 23 24 25 27 28 29 31 31
12 13 13 13 14 14 13 12 11 10 8 7 7 7 6 6 6 6 7 8 9 10 11 12 13 14 15 15 16 16 17 17 18 18 18 19 21 22 23 25 26 26 26 26
12 13 14 15 15 14 13 12 11 9 8 7 7 6 6 6 6 6 6 7 8 9 10 11 12 12 13 14 14 14 14 14 15 16 17 18 19 20 21 22 22 22 21 20
12 13 15 15 16 15 14 13 11 9 8 7 7 6 6 6 6 6 6 7 8 9 10 11 11 12 12 13 13 13 13 13 14 14 15 16 17 18 19 19 18 18 17 16
Wind_Direction
239 232 226 222 217 215 214 212 212 214 213 215 217 220 222 220 218 217 217 219 219 219 222 228 234 236 233 233 234 228 229 230 232 235 239 241 244 247 252 257 264 270 272 271
237 231 224 220 216 213 212 210 211 212 211 212 215 218 220 218 218 218 217 218 221 223 226 232 236 239 238 237 240 238 237 235 234 236 239 242 246 252 257 260 263 268 272 272
230 227 223 218 214 211 210 207 208 210 209 212 215 217 219 219 219 220 220 221 223 227 230 234 238 239 240 242 241 240 240 239 238 239 243 246 249 254 257 260 262 268 272 272
230 225 220 216 212 209 208 207 207 208 207 211 211 216 221 221 221 222 223 224 226 230 233 236 240 241 241 242 244 243 240 242 242 242 244 248 252 254 258 260 263 268 273 274
230 223 217 214 212 208 206 205 205 207 208 210 210 210 225 224 224 225 226 226 228 231 234 237 239 240 242 243 243 244 244 242 242 244 247 249 253 255 258 263 268 273 277 281
227 223 216 211 210 207 205 204 204 206 208 213 214 214 226 227 228 228 229 230 232 235 237 238 238 240 243 244 245 245 244 245 249 251 254 256 258 261 264 267 272 274 279 287
227 220 216 211 208 207 204 200 202 208 210 216 219 219 226 228 230 231 231 232 234 236 237 236 235 238 241 243 245 247 249 251 255 257 260 261 262 267 270 273 275 277 282 286
216 222 214 206 203 204 204 198 193 205 216 222 222 223 226 228 230 231 232 233 234 234 234 235 236 237 240 243 246 249 252 255 260 264 265 267 270 273 274 275 277 280 283 283
189 203 208 202 198 199 200 196 201 203 208 215 225 226 228 228 228 229 230 233 235 236 236 236 238 241 243 245 249 252 255 258 262 265 266 269 272 274 277 279 280 280 282 285
187 184 198 196 194 198 197 200 204 201 211 223 233 232 231 229 230 229 230 233 235 237 239 240 243 246 248 249 251 254 257 261 265 269 270 272 274 276 281 283 283 283 285 288
190 179 192 194 194 198 198 201 204 206 207 217 239 236 235 235 234 235 235 236 237 239 242 243 246 248 250 251 253 257 260 264 269 272 275 277 279 279 281 283 283 284 285 286
173 173 186 198 199 197 201 205 209 212 226 219 230 244 239 240 241 241 241 241 242 244 245 247 248 251 253 256 258 261 264 267 271 274 276 277 278 280 281 282 281 282 282 282
159 169 179 201 203 203 210 214 218 222 229 235 237 250 246 246 247 247 248 247 248 249 250 252 255 257 259 261 264 266 268 270 272 275 277 277 278 279 280 279 280 280 279 279
155 177 181 203 213 212 216 222 226 229 234 243 242 248 250 251 252 253 254 254 255 256 257 258 260 261 263 264 266 268 269 271 273 274 275 276 278 278 278 277 277 276 276 275
109 180 201 213 221 224 224 229 233 236 238 243 250 253 255 256 257 258 259 259 260 261 262 263 264 265 266 267 268 270 272 273 274 274 274 275 277 277 277 276 275 274 274 273
61 86 207 229 231 235 239 241 244 247 249 253 257 260 260 262 263 262 262 263 262 263 264 265 267 267 268 269 270 271 272 272 273 274 274 274 275 275 273 272 271 270 271 273
44 42 17 278 253 254 257 255 255 256 257 259 262 264 265 265 265 265 264 264 263 264 266 268 267 268 269 269 269 270 270 271 271 271 272 272 271 269 268 268 268 270 273 275
32 29 13 328 298 279 280 274 271 268 267 267 267 267 266 265 263 262 262 264 266 269 268 266 267 268 269 269 269 270 270 271 271 271 272 271 270 272 273 274 276 278 280 281
24 17 6 344 320 302 292 287 282 280 277 275 273 270 267 266 265 263 265 266 265 265 266 265 266 268 268 269 270 271 271 273 273 273 274 274 277 279 281 283 285 287 288 288
16 10 0 346 328 314 306 301 295 289 285 282 279 276 272 269 265 264 264 262 261 262 264 266 269 271 271 272 273 274 274 276 277 278 280 283 285 287 288 290 291 292 292 293
11 6 358 347 336 325 319 312 305 298 294 290 286 279 276 274 270 266 264 264 262 262 266 269 271 274 276 276 276 278 279 281 283 285 287 289 291 292 293 294 296 297 298 299
6 3 358 352 345 338 330 323 315 308 305 301 294 288 281 278 275 270 268 268 268 268 269 270 273 275 276 277 279 282 284 287 290 292 294 294 296 298 300 302 304 306 306 306
6 3 359 356 350 343 340 334 326 321 317 313 309 305 299 287 282 280 280 278 276 278 280 281 281 281 281 283 285 288 291 294 296 297 298 300 302 304 305 307 309 310 312 313
8 7 4 360 355 351 348 343 339 335 331 328 324 320 316 311 303 295 288 285 285 287 290 291 291 289 289 290 293 294 295 297 298 299 303 307 309 310 312 315 316 316 317 319
7 8 6 3 358 356 354 351 349 346 343 339 336 330 325 323 319 311 303 298 297 298 299 299 298 297 297 298 298 297 297 302 304 306 309 312 315 317 320 321 323 324 325 325
8 7 5 3 1 359 358 356 355 353 351 347 343 338 331 326 324 322 317 311 308 306 306 304 302 302 302 301 301 301 302 305 307 310 314 318 320 323 326 328 332 335 337 339
Height
5768 5771 5773 5776 5779 5783 5787 5791 5796 5800 5805 5810 5814 5818 5822 5826 5830 5834 5839 5844 5849 5853 5856 5859 5862 5864 5866 5867 5869 5870 5871 5872 5873 5874 5875 5875 5875 5875 5876 5875 5875 5874 5872 5871
5766 5767 5769 5772 5775 5779 5784 5788 5793 5797 5801 5806 5811 5815 5818 5822 5826 5830 5834 5839 5843 5848 5851 5855 5857 5860 5862 5864 5865 5866 5866 5867 5868 5869 5870 5870 5870 5870 5870 5870 5869 5867 5865 5864
5762 5764 5766 5769 5772 5776 5781 5785 5789 5793 5798 5803 5808 5812 5815 5818 5822 5826 5830 5834 5838 5842 5847 5850 5853 5855 5857 5859 5860 5861 5862 5863 5864 5864 5864 5864 5864 5864 5864 5863 5862 5860 5859 5857
5758 5760 5763 5766 5769 5773 5778 5782 5786 5790 5796 5800 5805 5810 5811 5815 5818 5822 5826 5830 5834 5838 5842 5845 5848 5850 5852 5854 5855 5856 5857 5858 5858 5858 5858 5858 5858 5858 5857 5854 5853 5853 5852 5850
5756 5757 5760 5763 5767 5770 5775 5779 5784 5788 5793 5797 5802 5807 5808 5810 5814 5818 5821 5825 5829 5833 5836 5839 5842 5844 5846 5848 5849 5850 5851 5852 5852 5852 5852 5852 5852 5851 5849 5848 5847 5846 5845 5843
5753 5755 5757 5761 5764 5768 5772 5777 5781 5786 5790 5795 5798 5803 5804 5806 5809 5813 5816 5820 5823 5827 5830 5833 5836 5838 5840 5842 5843 5844 5845 5845 5846 5846 5846 5845 5845 5843 5841 5841 5840 5839 5838 5835
5752 5753 5755 5759 5762 5766 5770 5776 5782 5786 5789 5792 5794 5797 5799 5801 5805 5808 5812 5815 5818 5821 5823 5826 5829 5831 5834 5836 5837 5838 5839 5839 5839 5840 5839 5838 5838 5836 5834 5834 5833 5832 5830 5828
5752 5755 5754 5757 5760 5764 5768 5774 5782 5787 5789 5790 5790 5792 5795 5798 5801 5804 5807 5810 5812 5815 5817 5820 5822 5825 5827 5829 5831 5832 5832 5832 5833 5833 5833 5832 5830 5829 5828 5826 5825 5824 5822 5820
5751 5753 5753 5755 5758 5762 5766 5771 5776 5781 5784 5787 5787 5788 5791 5794 5797 5800 5803 5805 5808 5810 5813 5815 5816 5818 5820 5822 5824 5824 5825 5826 5826 5826 5825 5825 5823 5822 5820 5818 5816 5814 5813 5811
5749 5751 5753 5754 5757 5760 5764 5768 5772 5778 5782 5785 5784 5785 5788 5790 5793 5795 5798 5800 5803 5805 5807 5809 5811 5812 5814 5815 5816 5817 5818 5818 5818 5817 5816 5816 5815 5813 5811 5809 5807 5805 5804 5802
5749 5751 5753 5754 5756 5760 5763 5767 5770 5775 5778 5783 5783 5784 5783 5785 5788 5790 5792 5795 5797 5799 5801 5803 5804 5806 5807 5808 5808 5809 5809 5809 5809 5808 5807 5807 5805 5804 5802 5800 5798 5796 5794 5792
5749 5751 5753 5754 5755 5758 5761 5764 5768 5772 5774 5776 5780 5781 5779 5780 5782 5784 5786 5788 5790 5792 5794 5795 5796 5798 5798 5799 5800 5800 5800 5800 5800 5799 5798 5796 5795 5793 5791 5789 5787 5785 5783 5781
5750 5751 5753 5755 5757 5758 5759 5762 5764 5767 5770 5772 5776 5776 5774 5775 5777 5778 5780 5781 5783 5784 5786 5787 5788 5789 5790 5790 5790 5790 5790 5790 5790 5788 5787 5785 5783 5782 5780 5778 5776 5774 5772 5770
5750 5751 5753 5756 5755 5756 5758 5760 5762 5764 5768 5769 5769 5768 5769 5770 5771 5772 5773 5774 5775 5776 5777 5778 5779 5779 5779 5780 5780 5780 5780 5779 5778 5777 5776 5774 5772 5770 5768 5766 5764 5762 5759 5757
5750 5751 5751 5752 5753 5754 5755 5757 5758 5760 5761 5763 5762 5762 5763 5763 5764 5765 5765 5766 5767 5767 5768 5769 5769 5769 5769 5769 5769 5769 5768 5767 5766 5765 5764 5762 5760 5758 5756 5754 5751 5749 5747 5744
5750 5751 5751 5751 5752 5752 5753 5754 5755 5755 5756 5756 5756 5756 5756 5756 5757 5757 5757 5758 5758 5759 5759 5759 5759 5759 5759 5758 5758 5758 5757 5756 5755 5754 5753 5751 5749 5747 5745 5742 5740 5737 5735 5732
5751 5751 5751 5751 5750 5750 5751 5751 5750 5750 5750 5750 5750 5750 5749 5749 5749 5749 5749 5749 5749 5749 5749 5749 5749 5749 5749 5749 5748 5748 5747 5746 5745 5744 5742 5740 5738 5736 5733 5731 5729 5726 5723 5721
5751 5751 5750 5750 5750 5749 5750 5747 5746 5745 5744 5744 5743 5743 5742 5742 5741 5741 5741 5741 5741 5741 5741 5741 5740 5740 5740 5740 5739 5738 5737 5736 5735 5734 5732 5731 5729 5726 5723 5721 5718 5715 5712 5709
5752 5751 5750 5749 5748 5747 5746 5744 5742 5741 5739 5738 5737 5736 5735 5734 5734 5734 5733 5733 5733 5733 5733 5733 5732 5732 5732 5731 5731 5730 5729 5728 5726 5725 5723 5721 5719 5716 5714 5711 5708 5705 5701 5697
5752 5751 5750 5748 5746 5744 5743 5740 5738 5737 5734 5732 5731 5729 5729 5728 5728 5728 5727 5727 5726 5726 5726 5726 5725 5725 5724 5724 5723 5722 5721 5720 5718 5717 5715 5712 5710 5708 5705 5702 5698 5695 5691 5686
5753 5750 5748 5746 5744 5742 5740 5736 5735 5734 5732 5728 5726 5725 5724 5723 5723 5722 5721 5721 5721 5721 5721 5720 5720 5719 5718 5718 5717 5716 5714 5713 5711 5709 5707 5705 5703 5700 5697 5693 5689 5685 5681 5676
5752 5750 5747 5745 5742 5741 5736 5733 5732 5730 5726 5724 5722 5721 5720 5719 5719 5718 5717 5717 5716 5716 5716 5715 5714 5714 5713 5712 5711 5710 5708 5706 5705 5703 5701 5698 5696 5693 5689 5685 5681 5676 5671 5666
5751 5749 5746 5744 5742 5737 5734 5731 5728 5725 5723 5721 5720 5718 5717 5716 5715 5715 5714 5713 5713 5712 5712 5711 5710 5709 5708 5707 5705 5704 5702 5701 5699 5697 5695 5693 5690 5686 5682 5678 5674 5669 5664 5658
5751 5748 5745 5741 5738 5735 5732 5728 5726 5723 5721 5719 5718 5716 5715 5714 5713 5712 5712 5711 5710 5709 5708 5707 5706 5705 5704 5702 5701 5699 5698 5696 5694 5692 5690 5687 5684 5680 5676 5672 5667 5662 5657 5651
5750 5747 5744 5741 5737 5733 5730 5727 5724 5721 5719 5717 5716 5715 5713 5712 5711 5710 5709 5709 5708 5706 5705 5704 5703 5701 5700 5698 5697 5695 5694 5692 5690 5688 5685 5682 5679 5675 5671 5667 5662 5657 5652 5647
5749 5747 5743 5740 5736 5733 5729 5726 5723 5720 5718 5716 5715 5713 5712 5711 5710 5709 5708 5707 5705 5704 5703 5701 5700 5698 5696 5694 5693 5691 5690 5688 5686 5684 5681 5678 5675 5671 5667 5663 5658 5653 5649 5645